STARLINK-1305, 45377

Orbit data source: Space-Track

STARLINK-1305, 45377 is a payload satellite owned by SpaceX/Seattle (US) in LEO that was launched on Wed, 18 Mar 2020 UTC via an FALCON 9 launch vehicle from the Air Force Eastern Test Range (AFETR). Payload-class satellites include a variety of spacecraft equipped with specific instruments for various scientific and technological missions. These include communications satellites like Starlink; space stations such as the ISS; scientific satellites like the Hubble; Earth observation satellites from companies like Planet Labs, Umbra, and HawkEye 360; GPS; miniature CubeSats for education and research; and military/defense satellites.

Loading next visibility...
Identifier
45377, 2020-019T
Orbit
LEO
Last TLE update
3 days ago
Origin
Manufacturer
SpaceX/Seattle
Mission
Operational Commercial Communications
Bus & Motor
STARLINK, Unknown motor
Mass
260 kg wet, ~248 kg dry
Launch date (UTC)
2020-03-18 (5 years ago)
Launch vehicle
FALCON 9
Launch site
Air Force Eastern Test Range (AFETR)
Object type
Payload
Rocket body
Debris
Shape & HBR
Box + 1 Pan, 8.86 m
Radar Cross Section
13.562 m², Large (>1 m²)

Expand to show TLE details & history

TLE from 3 days ago
0 STARLINK-1305
1 45377U 20019T   25118.34152931  .00016462  00000-0  11216-2 0  9995
2 45377  53.0525 142.2717 0001511  88.1926 271.9236 15.06394293282200
Epoch: 2025-04-28T08:11Z
Definitive object data (Epoch: 2025-04-28T08:11:48.132Z)
Latitude
-0.00002°
Longitude
162.7642°
Altitude
548.073 km
Speed
7.589 km/s
True Right ascension
09h 29m 05s
True Declination
0° 00' 00"
Sunlit
Object was in daylight at TLE epoch
Visualization TLE readout
Latitude
36.19813°
Longitude
-62.15513°
Altitude
548.925 km
Speed
7.593 km/s
Apparent Right ascension
18h 29m 11s
Apparent Declination
0° 00' 14"
Sunlit
Object is in daylight
Visualization observer readout
Local Sidereal Time
06:28:55
Azimuth
359.9° N
Elevation
-50.088°
Doppler factor
1
Orbital elements
Apogee altitude
548.547 km
Perigee altitude
546.454 km
Semi-major axis
6,925.637 km
Eccentricity
0.0001511
Inclination
53.0525°
RAAN
142.2717°
Arg. of periapsis
88.1926°
True anomaly
271.90629°
Mean anomaly
271.9236°
Eccentric anomaly
271.91495°
Mean motion
3.76577 °/min
BSTAR
0.0011216
Orbital period
95.6 mins
Loading maneuver chart data...
Loading SW <> Apogee altitude chart data...
Loading historical data...
Loading historical data...
Loading historical data...
Loading historical data...
Loading historical data...
Loading historical data...
Loading historical data...

STARLINK-1305 Visibility forecast

Observer location: undefined°, undefined°

Span
Click to sort rows by Start time (UTC) header in descending order
Start Az.
Max El. time (UTC)
Max El. Az.
Max El.
End time (UTC)
End Az.
7 mins2025-05-01 03:13:52.449Z216.005° SW2025-05-01 03:17:52.449Z123.176° SE41.032°2025-05-01 03:20:52.449Z58.835° ENE
5 mins2025-05-01 04:55:52.449Z298.525° NW2025-05-01 04:57:52.449Z344.202° N23.205°2025-05-01 05:00:52.449Z31.651° NE
6 mins2025-05-01 09:56:52.449Z322.382° NNW2025-05-01 09:58:52.449Z10.584° NNE40.483°2025-05-01 10:02:52.449Z117.116° SE
4 mins2025-05-01 11:36:52.449Z259.526° W2025-05-01 11:37:52.449Z242.015° WSW17.177°2025-05-01 11:40:52.449Z191.863° SSW
|